| time (UTC) | temp F | wind direction | speed knots | gust knots | rain 1hr in | rain 24hr in | rain mn in | humidity % | barometer mb |
| 20260905111004 | 54 | 41 | 2.6 | 5.2 | 0.00 | 0.00 | 0.00 | 56 | 1007.4 |
| 20260905105505 | 55 | 29 | 1.7 | 5.2 | 0.00 | 0.00 | 0.00 | 55 | 1007.2 |
| 20260905104505 | 55 | 48 | 4.3 | 7.8 | 0.00 | 0.00 | 0.00 | 55 | 1007.0 |
| 20260905104005 | 55 | 27 | 4.3 | 7.8 | 0.00 | 0.00 | 0.00 | 54 | 1007.1 |
| 20260905103505 | 55 | 53 | 4.3 | 7.8 | 0.00 | 0.00 | 0.00 | 54 | 1007.0 |
| 20260905102505 | 56 | 43 | 5.2 | 8.7 | 0.00 | 0.00 | 0.00 | 53 | 1007.0 |
| 20260905102005 | 56 | 59 | 4.3 | 10.4 | 0.00 | 0.00 | 0.00 | 53 | 1007.1 |
| 20260905101504 | 56 | 66 | 4.3 | 10.4 | 0.00 | 0.00 | 0.00 | 53 | 1007.0 |
| 20260905101004 | 56 | 53 | 5.2 | 8.7 | 0.00 | 0.00 | 0.00 | 52 | 1006.8 |
| 20260905095505 | 57 | 78 | 4.3 | 10.4 | 0.00 | 0.00 | 0.00 | 51 | 1007.1 |
| 20260905094504 | 57 | 64 | 5.2 | 8.7 | 0.00 | 0.00 | 0.00 | 52 | 1007.1 |
| 20260905093505 | 57 | 98 | 5.2 | 7.0 | 0.00 | 0.00 | 0.00 | 52 | 1007.3 |
| 20260905093004 | 57 | 86 | 3.5 | 7.8 | 0.00 | 0.00 | 0.00 | 52 | 1007.3 |
| 20260905092504 | 57 | 78 | 5.2 | 7.8 | 0.00 | 0.00 | 0.00 | 53 | 1007.1 |
| 20260905092004 | 57 | 84 | 5.2 | 7.8 | 0.00 | 0.00 | 0.00 | 52 | 1007.1 |
| 20260905091504 | 57 | 76 | 5.2 | 7.0 | 0.00 | 0.00 | 0.00 | 52 | 1007.0 |
| 20260905091004 | 56 | 66 | 4.3 | 5.2 | 0.00 | 0.00 | 0.00 | 53 | 1006.9 |
| 20260905090005 | 57 | 53 | 2.6 | 7.8 | 0.00 | 0.00 | 0.00 | 52 | 1006.8 |
| 20260905085504 | 57 | 77 | 6.1 | 7.8 | 0.00 | 0.00 | 0.00 | 52 | 1006.8 |
| 20260905085004 | 57 | 84 | 6.1 | 7.8 | 0.00 | 0.00 | 0.00 | 52 | 1006.8 |
| 20260905084504 | 58 | 86 | 2.6 | 8.7 | 0.00 | 0.00 | 0.00 | 51 | 1006.8 |
| 20260905084005 | 58 | 56 | 5.2 | 10.4 | 0.00 | 0.00 | 0.00 | 50 | 1006.5 |
| 20260905083504 | 58 | 48 | 5.2 | 10.4 | 0.00 | 0.00 | 0.00 | 50 | 1006.4 |
| 20260905083004 | 58 | 58 | 6.1 | 10.4 | 0.00 | 0.00 | 0.00 | 50 | 1006.4 |
| 20260905082504 | 58 | 38 | 5.2 | 8.7 | 0.00 | 0.00 | 0.00 | 50 | 1006.2 |
| 20260905081505 | 59 | 51 | 4.3 | 7.8 | 0.00 | 0.00 | 0.00 | 49 | 1006.6 |
| 20260905081004 | 59 | 40 | 5.2 | 7.8 | 0.00 | 0.00 | 0.00 | 49 | 1006.5 |
| 20260905080005 | 59 | 29 | 5.2 | 7.8 | 0.00 | 0.00 | 0.00 | 49 | 1006.6 |
| 20260905075505 | 59 | 37 | 4.3 | 7.0 | 0.00 | 0.00 | 0.00 | 49 | 1006.7 |
| 20260905075004 | 59 | 24 | 2.6 | 8.7 | 0.00 | 0.00 | 0.00 | 49 | 1006.7 |
| 20260905074004 | 59 | 26 | 4.3 | 8.7 | 0.00 | 0.00 | 0.00 | 49 | 1006.6 |
| 20260905073505 | 59 | 36 | 4.3 | 6.1 | 0.00 | 0.00 | 0.00 | 49 | 1006.5 |
| 20260905073005 | 60 | 30 | 2.6 | 7.0 | 0.00 | 0.00 | 0.00 | 48 | 1006.5 |
| 20260905072504 | 60 | 26 | 2.6 | 7.0 | 0.00 | 0.00 | 0.00 | 48 | 1006.4 |
| 20260905071004 | 61 | 33 | 2.6 | 5.2 | 0.00 | 0.00 | 0.00 | 47 | 1006.4 |
| 20260905070004 | 62 | 27 | 2.6 | 5.2 | 0.00 | 0.00 | 0.00 | 46 | 1006.5 |
| 20260905065004 | 62 | 17 | 4.3 | 7.8 | 0.00 | 0.00 | 0.00 | 45 | 1006.5 |
| 20260905064504 | 62 | 26 | 2.6 | 7.8 | 0.00 | 0.00 | 0.00 | 45 | 1006.6 |
| 20260905064004 | 62 | 26 | 4.3 | 7.0 | 0.00 | 0.00 | 0.00 | 45 | 1006.7 |
| 20260905063504 | 62 | 20 | 2.6 | 7.0 | 0.00 | 0.00 | 0.00 | 46 | 1006.7 |
| 20260905063004 | 62 | 16 | 0.9 | 2.6 | 0.00 | 0.00 | 0.00 | 46 | 1006.8 |
| 20260905062504 | 62 | 15 | 1.7 | 2.6 | 0.00 | 0.00 | 0.00 | 45 | 1006.7 |
| 20260905062004 | 63 | 17 | 1.7 | 2.6 | 0.00 | 0.00 | 0.00 | 45 | 1006.5 |
| 20260905061504 | 63 | 31 | 0.9 | 6.1 | 0.00 | 0.00 | 0.00 | 45 | 1006.6 |
| 20260905061004 | 63 | 19 | 2.6 | 6.1 | 0.00 | 0.00 | 0.00 | 44 | 1006.4 |
| 20260905060004 | 63 | 21 | 1.7 | 4.3 | 0.00 | 0.00 | 0.00 | 44 | 1006.6 |
| 20260905055004 | 64 | 19 | 2.6 | 7.0 | 0.00 | 0.00 | 0.00 | 43 | 1006.5 |
| 20260905054504 | 64 | 28 | 3.5 | 8.7 | 0.00 | 0.00 | 0.00 | 43 | 1006.5 |
| 20260905054005 | 64 | 35 | 4.3 | 8.7 | 0.00 | 0.00 | 0.00 | 43 | 1006.5 |
| 20260905053504 | 64 | 17 | 2.6 | 10.4 | 0.00 | 0.00 | 0.00 | 43 | 1006.4 |
| 20260905053004 | 64 | 32 | 5.2 | 10.4 | 0.00 | 0.00 | 0.00 | 42 | 1006.3 |
| 20260905052504 | 64 | 24 | 4.3 | 8.7 | 0.00 | 0.00 | 0.00 | 42 | 1006.1 |
| 20260905052004 | 64 | 32 | 3.5 | 8.7 | 0.00 | 0.00 | 0.00 | 42 | 1006.0 |
| 20260905051504 | 64 | 26 | 1.7 | 7.0 | 0.00 | 0.00 | 0.00 | 42 | 1006.1 |
| 20260905051004 | 64 | 31 | 1.7 | 7.0 | 0.00 | 0.00 | 0.00 | 42 | 1006.0 |
| 20260905050004 | 65 | 67 | 2.6 | 5.2 | 0.00 | 0.00 | 0.00 | 41 | 1006.1 |
| 20260905045504 | 65 | 8 | 1.7 | 13.0 | 0.00 | 0.00 | 0.00 | 41 | 1005.9 |
| 20260905045005 | 65 | 338 | 3.5 | 13.0 | 0.00 | 0.00 | 0.00 | 41 | 1005.8 |
| 20260905044504 | 65 | 331 | 5.2 | 13.0 | 0.00 | 0.00 | 0.00 | 41 | 1005.7 |
| 20260905044004 | 65 | 346 | 2.6 | 7.0 | 0.00 | 0.00 | 0.00 | 41 | 1005.6 |
| 20260905043504 | 65 | 2 | 2.6 | 8.7 | 0.00 | 0.00 | 0.00 | 41 | 1005.6 |
| 20260905043004 | 65 | 10 | 4.3 | 8.7 | 0.00 | 0.00 | 0.00 | 41 | 1005.6 |
| 20260905042504 | 65 | 333 | 5.2 | 8.7 | 0.00 | 0.00 | 0.00 | 41 | 1005.5 |
| 20260905042004 | 65 | 343 | 5.2 | 7.8 | 0.00 | 0.00 | 0.00 | 41 | 1005.4 |
| 20260905041504 | 65 | 0 | 4.3 | 8.7 | 0.00 | 0.00 | 0.00 | 40 | 1005.5 |
| 20260905041004 | 66 | 25 | 2.6 | 10.4 | 0.00 | 0.00 | 0.00 | 40 | 1005.5 |
| 20260905040004 | 66 | 4 | 7.0 | 13.9 | 0.00 | 0.00 | 0.00 | 39 | 1005.5 |
| 20260905035004 | 67 | 13 | 7.8 | 13.9 | 0.00 | 0.00 | 0.00 | 38 | 1005.4 |
| 20260905034004 | 68 | 27 | 2.6 | 7.0 | 0.00 | 0.00 | 0.00 | 34 | 1005.1 |
| 20260905033004 | 68 | 310 | 2.6 | 5.2 | 0.00 | 0.00 | 0.00 | 32 | 1004.6 |
| 20260905031504 | 70 | 273 | 2.6 | 5.2 | 0.00 | 0.00 | 0.00 | 28 | 1004.4 |
| 20260905030004 | 71 | 253 | 1.7 | 7.0 | 0.00 | 0.00 | 0.00 | 25 | 1004.3 |
| 20260905025504 | 72 | 249 | 2.6 | 7.0 | 0.00 | 0.00 | 0.00 | 25 | 1004.1 |
| 20260905025004 | 72 | 253 | 4.3 | 7.8 | 0.00 | 0.00 | 0.00 | 24 | 1004.1 |
| 20260905024504 | 72 | 254 | 5.2 | 10.4 | 0.00 | 0.00 | 0.00 | 24 | 1003.9 |
| 20260905024004 | 73 | 253 | 5.2 | 10.4 | 0.00 | 0.00 | 0.00 | 24 | 1003.8 |
| 20260905023505 | 73 | 258 | 7.0 | 10.4 | 0.00 | 0.00 | 0.00 | 23 | 1003.7 |
| 20260905023004 | 73 | 264 | 7.8 | 10.4 | 0.00 | 0.00 | 0.00 | 23 | 1003.6 |
| 20260905022504 | 73 | 273 | 7.8 | 10.4 | 0.00 | 0.00 | 0.00 | 23 | 1003.4 |
| 20260905022004 | 74 | 273 | 7.8 | 10.4 | 0.00 | 0.00 | 0.00 | 23 | 1003.4 |
| 20260905021504 | 74 | 272 | 7.8 | 10.4 | 0.00 | 0.00 | 0.00 | 23 | 1003.3 |
| 20260905021005 | 74 | 272 | 7.0 | 10.4 | 0.00 | 0.00 | 0.00 | 23 | 1003.4 |
| 20260905020004 | 75 | 272 | 6.1 | 10.4 | 0.00 | 0.00 | 0.00 | 23 | 1003.2 |
| 20260905015004 | 75 | 271 | 6.1 | 11.3 | 0.00 | 0.00 | 0.00 | 22 | 1003.1 |
| 20260905014504 | 76 | 274 | 6.1 | 11.3 | 0.00 | 0.00 | 0.00 | 22 | 1003.0 |
| 20260905014004 | 76 | 275 | 7.8 | 11.3 | 0.00 | 0.00 | 0.00 | 21 | 1003.0 |
| 20260905013504 | 77 | 275 | 6.1 | 10.4 | 0.00 | 0.00 | 0.00 | 21 | 1002.9 |
| 20260905013004 | 77 | 288 | 6.1 | 11.3 | 0.00 | 0.00 | 0.00 | 21 | 1002.9 |
| 20260905012504 | 77 | 279 | 7.8 | 11.3 | 0.00 | 0.00 | 0.00 | 21 | 1002.8 |
| 20260905012004 | 78 | 281 | 7.8 | 11.3 | 0.00 | 0.00 | 0.00 | 20 | 1002.7 |
| 20260905011503 | 78 | 290 | 7.8 | 11.3 | 0.00 | 0.00 | 0.00 | 20 | 1002.8 |
| 20260905011004 | 78 | 278 | 6.1 | 13.0 | 0.00 | 0.00 | 0.00 | 20 | 1002.7 |
| 20260905005504 | 79 | 279 | 8.7 | 14.8 | 0.00 | 0.00 | 0.00 | 20 | 1002.4 |
| 20260905005004 | 79 | 287 | 10.4 | 14.8 | 0.00 | 0.00 | 0.00 | 19 | 1002.4 |
| 20260905004504 | 80 | 284 | 11.3 | 13.9 | 0.00 | 0.00 | 0.00 | 20 | 1002.4 |
| 20260905003004 | 80 | 276 | 11.3 | 18.2 | 0.00 | 0.00 | 0.00 | 19 | 1002.2 |
| 20260905002504 | 80 | 282 | 11.3 | 18.2 | 0.00 | 0.00 | 0.00 | 20 | 1002.2 |
| 20260905001504 | 80 | 274 | 12.2 | 20.0 | 0.00 | 0.00 | 0.00 | 19 | 1001.9 |
| 20260904235504 | 81 | 274 | 14.8 | 22.6 | 0.00 | 0.00 | 0.00 | 20 | 1001.6 |
| 20260904235004 | 81 | 283 | 16.5 | 21.7 | 0.00 | 0.00 | 0.00 | 19 | 1001.7 |
| 20260904234504 | 81 | 270 | 14.8 | 20.9 | 0.00 | 0.00 | 0.00 | 19 | 1002.0 |
| 20260904234004 | 81 | 270 | 13.9 | 20.9 | 0.00 | 0.00 | 0.00 | 19 | 1002.0 |
| 20260904233504 | 81 | 255 | 13.9 | 20.0 | 0.00 | 0.00 | 0.00 | 19 | 1002.2 |
| 20260904233004 | 82 | 267 | 13.9 | 20.0 | 0.00 | 0.00 | 0.00 | 18 | 1002.2 |
| 20260904232504 | 82 | 267 | 12.2 | 17.4 | 0.00 | 0.00 | 0.00 | 18 | 1002.3 |
| 20260904232004 | 82 | 237 | 6.1 | 20.0 | 0.00 | 0.00 | 0.00 | 17 | 1002.2 |
| 20260904231504 | 83 | 249 | 12.2 | 20.0 | 0.00 | 0.00 | 0.00 | 17 | 1002.3 |
| 20260904231004 | 83 | 271 | 11.3 | 20.0 | 0.00 | 0.00 | 0.00 | 18 | 1002.3 |
| 20260904230005 | 82 | 247 | 8.7 | 17.4 | 0.00 | 0.00 | 0.00 | 18 | 1002.4 |
| 20260904225504 | 82 | 286 | 8.7 | 17.4 | 0.00 | 0.00 | 0.00 | 19 | 1002.2 |
| 20260904225004 | 83 | 260 | 12.2 | 19.1 | 0.00 | 0.00 | 0.00 | 18 | 1002.3 |
| 20260904224504 | 83 | 238 | 8.7 | 20.0 | 0.00 | 0.00 | 0.00 | 18 | 1002.2 |
| 20260904223504 | 83 | 265 | 8.7 | 17.4 | 0.00 | 0.00 | 0.00 | 18 | 1002.1 |
| 20260904223006 | 83 | 268 | 11.3 | 17.4 | 0.00 | 0.00 | 0.00 | 18 | 1002.1 |
| 20260904222506 | 83 | 244 | 10.4 | 17.4 | 0.00 | 0.00 | 0.00 | 17 | 1002.1 |
| 20260904222006 | 83 | 253 | 9.6 | 19.1 | 0.00 | 0.00 | 0.00 | 18 | 1002.0 |
| 20260904221505 | 83 | 243 | 13.0 | 19.1 | 0.00 | 0.00 | 0.00 | 18 | 1002.0 |
| 20260904221006 | 84 | 260 | 10.4 | 18.2 | 0.00 | 0.00 | 0.00 | 18 | 1002.0 |
| 20260904220006 | 83 | 264 | 11.3 | 20.0 | 0.00 | 0.00 | 0.00 | 18 | 1001.9 |
| 20260904215505 | 83 | 244 | 13.0 | 20.9 | 0.00 | 0.00 | 0.00 | 17 | 1001.9 |
| 20260904215006 | 83 | 241 | 13.0 | 22.6 | 0.00 | 0.00 | 0.00 | 17 | 1002.0 |
| 20260904214005 | 83 | 253 | 11.3 | 20.0 | 0.00 | 0.00 | 0.00 | 18 | 1001.8 |
| 20260904213506 | 83 | 250 | 13.9 | 20.0 | 0.00 | 0.00 | 0.00 | 18 | 1001.9 |
| 20260904213006 | 82 | 234 | 6.1 | 18.2 | 0.00 | 0.00 | 0.00 | 18 | 1001.8 |
| 20260904212506 | 83 | 264 | 12.2 | 18.2 | 0.00 | 0.00 | 0.00 | 18 | 1001.7 |
| 20260904211506 | 83 | 198 | 6.1 | 17.4 | 0.00 | 0.00 | 0.00 | 17 | 1001.8 |
| 20260904211006 | 83 | 228 | 7.8 | 17.4 | 0.00 | 0.00 | 0.00 | 17 | 1001.9 |
| 20260904210005 | 83 | 238 | 9.6 | 17.4 | 0.00 | 0.00 | 0.00 | 17 | 1001.7 |
| 20260904205506 | 83 | 245 | 11.3 | 20.9 | 0.00 | 0.00 | 0.00 | 18 | 1001.7 |
| 20260904205006 | 83 | 244 | 8.7 | 20.9 | 0.00 | 0.00 | 0.00 | 17 | 1001.6 |
| 20260904204506 | 84 | 241 | 7.8 | 13.0 | 0.00 | 0.00 | 0.00 | 16 | 1001.7 |
| 20260904204006 | 84 | 233 | 7.0 | 13.0 | 0.00 | 0.00 | 0.00 | 16 | 1001.7 |
| 20260904203506 | 85 | 163 | 7.0 | 17.4 | 0.00 | 0.00 | 0.00 | 15 | 1001.5 |
| 20260904203006 | 86 | 206 | 8.7 | 25.2 | 0.00 | 0.00 | 0.00 | 15 | 1001.6 |
| 20260904202505 | 86 | 185 | 10.4 | 25.2 | 0.00 | 0.00 | 0.00 | 15 | 1001.6 |
| 20260904202005 | 85 | 176 | 15.6 | 25.2 | 0.00 | 0.00 | 0.00 | 16 | 1001.5 |
| 20260904201506 | 83 | 254 | 10.4 | 18.2 | 0.00 | 0.00 | 0.00 | 17 | 1001.4 |
| 20260904201005 | 83 | 242 | 11.3 | 19.1 | 0.00 | 0.00 | 0.00 | 17 | 1001.5 |
| 20260904200006 | 83 | 247 | 12.2 | 19.1 | 0.00 | 0.00 | 0.00 | 16 | 1001.5 |
| 20260904195506 | 83 | 260 | 11.3 | 17.4 | 0.00 | 0.00 | 0.00 | 17 | 1001.4 |
| 20260904195005 | 82 | 259 | 10.4 | 20.0 | 0.00 | 0.00 | 0.00 | 17 | 1001.5 |
| 20260904194506 | 82 | 252 | 13.9 | 20.0 | 0.00 | 0.00 | 0.00 | 17 | 1001.5 |
| 20260904194006 | 81 | 246 | 11.3 | 18.2 | 0.00 | 0.00 | 0.00 | 17 | 1001.4 |
| 20260904193506 | 81 | 256 | 12.2 | 18.2 | 0.00 | 0.00 | 0.00 | 17 | 1001.5 |
| 20260904193006 | 80 | 265 | 11.3 | 17.4 | 0.00 | 0.00 | 0.00 | 18 | 1001.6 |
| 20260904192506 | 81 | 257 | 12.2 | 17.4 | 0.00 | 0.00 | 0.00 | 18 | 1001.6 |
| 20260904192006 | 81 | 274 | 10.4 | 19.1 | 0.00 | 0.00 | 0.00 | 18 | 1001.5 |
| 20260904191505 | 82 | 270 | 10.4 | 19.1 | 0.00 | 0.00 | 0.00 | 18 | 1001.5 |
| 20260904191006 | 81 | 252 | 8.7 | 19.1 | 0.00 | 0.00 | 0.00 | 19 | 1001.5 |
| 20260904190006 | 79 | 293 | 4.3 | 11.3 | 0.00 | 0.00 | 0.00 | 20 | 1001.7 |
| 20260904185005 | 80 | 270 | 6.1 | 11.3 | 0.00 | 0.00 | 0.00 | 20 | 1001.7 |
| 20260904184006 | 79 | 294 | 0.9 | 7.0 | 0.00 | 0.00 | 0.00 | 20 | 1001.6 |
| 20260904183506 | 78 | 306 | 4.3 | 10.4 | 0.00 | 0.00 | 0.00 | 22 | 1001.7 |
| 20260904183005 | 77 | 305 | 5.2 | 10.4 | 0.00 | 0.00 | 0.00 | 22 | 1001.8 |
| 20260904182006 | 78 | 312 | 6.1 | 12.2 | 0.00 | 0.00 | 0.00 | 22 | 1001.7 |
| 20260904181505 | 78 | 301 | 6.1 | 13.0 | 0.00 | 0.00 | 0.00 | 23 | 1001.7 |
| 20260904181006 | 77 | 305 | 8.7 | 13.0 | 0.00 | 0.00 | 0.00 | 22 | 1001.7 |
| 20260904180005 | 77 | 278 | 5.2 | 13.9 | 0.00 | 0.00 | 0.00 | 22 | 1001.7 |
| 20260904175506 | 77 | 310 | 5.2 | 11.3 | 0.00 | 0.00 | 0.00 | 23 | 1001.9 |
| 20260904174505 | 76 | 303 | 4.3 | 10.4 | 0.00 | 0.00 | 0.00 | 27 | 1001.9 |
| 20260904174006 | 76 | 310 | 5.2 | 10.4 | 0.00 | 0.00 | 0.00 | 26 | 1001.9 |
| 20260904173506 | 76 | 275 | 7.0 | 10.4 | 0.00 | 0.00 | 0.00 | 25 | 1001.8 |
| 20260904173006 | 75 | 285 | 3.5 | 8.7 | 0.00 | 0.00 | 0.00 | 27 | 1001.8 |
| 20260904172006 | 75 | 307 | 5.2 | 10.4 | 0.00 | 0.00 | 0.00 | 26 | 1001.7 |
| 20260904171006 | 75 | 299 | 4.3 | 7.0 | 0.00 | 0.00 | 0.00 | 24 | 1001.6 |
| 20260904170006 | 73 | 10 | 0.0 | 2.6 | 0.00 | 0.00 | 0.00 | 24 | 1001.5 |
| 20260904165505 | 72 | 11 | 0.9 | 2.6 | 0.00 | 0.00 | 0.00 | 27 | 1001.5 |
| 20260904165005 | 71 | 11 | 0.0 | 2.6 | 0.00 | 0.00 | 0.00 | 28 | 1001.5 |
| 20260904164505 | 71 | 11 | 0.0 | 4.3 | 0.00 | 0.00 | 0.00 | 29 | 1001.5 |
| 20260904164005 | 70 | 10 | 2.6 | 4.3 | 0.00 | 0.00 | 0.00 | 31 | 1001.5 |
| 20260904163505 | 70 | 21 | 1.7 | 7.0 | 0.00 | 0.00 | 0.00 | 31 | 1001.6 |
| 20260904163006 | 69 | 329 | 1.7 | 7.0 | 0.00 | 0.00 | 0.00 | 31 | 1001.6 |
| 20260904162505 | 69 | 2 | 2.6 | 7.0 | 0.00 | 0.00 | 0.00 | 32 | 1001.5 |
| 20260904162006 | 68 | 13 | 2.6 | 7.0 | 0.00 | 0.00 | 0.00 | 33 | 1001.3 |
| 20260904161506 | 68 | 15 | 2.6 | 7.0 | 0.00 | 0.00 | 0.00 | 33 | 1001.3 |
| 20260904161005 | 67 | 26 | 2.6 | 8.7 | 0.00 | 0.00 | 0.00 | 35 | 1001.3 |
| 20260904160005 | 67 | 11 | 2.6 | 8.7 | 0.00 | 0.00 | 0.00 | 36 | 1001.3 |
| 20260904155006 | 67 | 0 | 3.5 | 8.7 | 0.00 | 0.00 | 0.00 | 36 | 1001.2 |
| 20260904154506 | 67 | 339 | 4.3 | 8.7 | 0.00 | 0.00 | 0.00 | 37 | 1001.2 |
| 20260904154006 | 67 | 329 | 4.3 | 7.8 | 0.00 | 0.00 | 0.00 | 37 | 1001.1 |
| 20260904153006 | 65 | 320 | 4.3 | 10.4 | 0.00 | 0.00 | 0.00 | 39 | 1001.2 |
| 20260904151505 | 64 | 351 | 2.6 | 12.2 | 0.00 | 0.00 | 0.00 | 39 | 1001.0 |
| 20260904151006 | 64 | 358 | 4.3 | 13.0 | 0.00 | 0.00 | 0.00 | 40 | 1001.2 |
| 20260904150006 | 67 | 306 | 1.7 | 10.4 | 0.00 | 0.00 | 0.00 | 35 | 1001.1 |
| 20260904145505 | 66 | 157 | 6.1 | 12.2 | 0.00 | 0.00 | 0.00 | 36 | 1000.9 |
| 20260904145006 | 65 | 150 | 7.8 | 12.2 | 0.00 | 0.00 | 0.00 | 37 | 1000.9 |
| 20260904144505 | 64 | 166 | 7.8 | 11.3 | 0.00 | 0.00 | 0.00 | 38 | 1001.1 |
| 20260904144006 | 63 | 167 | 6.1 | 10.4 | 0.00 | 0.00 | 0.00 | 39 | 1001.2 |
| 20260904143006 | 62 | 185 | 3.5 | 6.1 | 0.00 | 0.00 | 0.00 | 41 | 1001.4 |
| 20260904142505 | 62 | 185 | 2.6 | 6.1 | 0.00 | 0.00 | 0.00 | 41 | 1001.3 |
| 20260904142006 | 61 | 183 | 4.3 | 6.1 | 0.00 | 0.00 | 0.00 | 42 | 1001.3 |
| 20260904141505 | 61 | 186 | 3.5 | 7.0 | 0.00 | 0.00 | 0.00 | 43 | 1001.4 |
| 20260904141006 | 60 | 172 | 5.2 | 7.0 | 0.00 | 0.00 | 0.00 | 44 | 1001.3 |
| 20260904140005 | 58 | 189 | 1.7 | 2.6 | 0.00 | 0.00 | 0.00 | 46 | 1001.3 |
| 20260904135506 | 57 | 174 | 0.0 | 2.6 | 0.00 | 0.00 | 0.00 | 48 | 1001.3 |
| 20260904135005 | 57 | 174 | 0.0 | 2.6 | 0.00 | 0.00 | 0.00 | 49 | 1001.2 |
| 20260904134505 | 57 | 174 | 0.9 | 6.1 | 0.00 | 0.00 | 0.00 | 48 | 1001.0 |
| 20260904134006 | 57 | 174 | 0.9 | 6.1 | 0.00 | 0.00 | 0.00 | 49 | 1001.0 |
| 20260904133505 | 56 | 191 | 1.7 | 6.1 | 0.00 | 0.00 | 0.00 | 49 | 1001.0 |
| 20260904133006 | 56 | 197 | 2.6 | 5.2 | 0.00 | 0.00 | 0.00 | 51 | 1001.0 |
| 20260904132505 | 55 | 197 | 2.6 | 5.2 | 0.00 | 0.00 | 0.00 | 50 | 1001.0 |
| 20260904132006 | 55 | 197 | 4.3 | 6.1 | 0.00 | 0.00 | 0.00 | 50 | 1001.0 |
| 20260904131505 | 54 | 198 | 4.3 | 6.1 | 0.00 | 0.00 | 0.00 | 50 | 1000.9 |
| 20260904131005 | 54 | 201 | 1.7 | 5.2 | 0.00 | 0.00 | 0.00 | 51 | 1000.7 |
| 20260904130006 | 54 | 235 | 0.9 | 4.3 | 0.00 | 0.00 | 0.00 | 50 | 1000.7 |
| 20260904125505 | 54 | 235 | 2.6 | 4.3 | 0.00 | 0.00 | 0.00 | 50 | 1000.5 |
| 20260904125006 | 55 | 242 | 1.7 | 6.1 | 0.00 | 0.00 | 0.00 | 50 | 1000.4 |
| 20260904124005 | 55 | 245 | 5.2 | 7.0 | 0.00 | 0.00 | 0.00 | 49 | 1000.6 |
| 20260904123506 | 55 | 223 | 2.6 | 4.3 | 0.00 | 0.00 | 0.00 | 47 | 1000.4 |
| 20260904123006 | 56 | 142 | 0.0 | 0.0 | 0.00 | 0.00 | 0.00 | 46 | 1000.3 |
| 20260904122506 | 57 | 137 | 0.0 | 0.0 | 0.00 | 0.00 | 0.00 | 46 | 1000.3 |
| 20260904122006 | 57 | 95 | 0.0 | 0.0 | 0.00 | 0.00 | 0.00 | 44 | 1000.3 |
| 20260904121505 | 57 | 95 | 0.0 | 0.0 | 0.00 | 0.00 | 0.00 | 44 | 1000.4 |
| 20260904121006 | 57 | 94 | 0.0 | 0.0 | 0.00 | 0.00 | 0.00 | 44 | 1000.4 |
| 20260904120005 | 57 | 77 | 0.0 | 0.0 | 0.00 | 0.00 | 0.00 | 43 | 1000.3 |
| 20260904115505 | 58 | 77 | 0.0 | 0.0 | 0.00 | 0.00 | 0.00 | 42 | 1000.4 |
| 20260904115005 | 58 | 76 | 0.0 | 0.0 | 0.00 | 0.00 | 0.00 | 41 | 1000.4 |
| 20260904114505 | 59 | 76 | 0.0 | 0.0 | 0.00 | 0.00 | 0.00 | 40 | 1000.5 |
| 20260904113506 | 60 | 75 | 0.0 | 0.0 | 0.00 | 0.00 | 0.00 | 39 | 1000.2 |
| 20260904112505 | 60 | 75 | 0.0 | 0.0 | 0.00 | 0.00 | 0.00 | 39 | 1000.1 |